When you browse on this site, cookies collect data to enhance your experience and personalize the content and advertising you see.
Visit our Privacy Policy to learn more. By continuing to use the site, you agree to this use of cookies and data.
  • In Hungary
  • List of Countries
  • For 7 days
  • Water Temperature
  • Satellite Maps
  • Weather Map
  • News
  • Weather Widgets
  • user-avatar
    Login

    Hourly Weather Komancza

    Today, 26 April, Friday

    Time Temperature Precipitation Wind Pressure Humidity
    00:00 +12°C° 0 mm 3 mps 710 mmHg 93%
    01:00 +12°C° 0 mm 2 mps 710 mmHg 95%
    02:00 +12°C° 0 mm 2 mps 710 mmHg 95%
    03:00 +12°C° 0 mm 2 mps 710 mmHg 95%
    04:00 +12°C° 0 mm 2 mps 709 mmHg 95%
    05:00 +12°C° 0 mm 3 mps 709 mmHg 90%
    06:00 +13°C° 0 mm 4 mps 709 mmHg 85%
    07:00 +15°C° 0 mm 4 mps 709 mmHg 79%
    08:00 +16°C° 0 mm 5 mps 709 mmHg 71%
    09:00 +19°C° 0 mm 6 mps 709 mmHg 63%
    10:00 +20°C° 0 mm 7 mps 709 mmHg 55%
    11:00 +21°C° 0 mm 7 mps 709 mmHg 54%
    12:00 +22°C° 0 mm 7 mps 709 mmHg 53%
    13:00 +22°C° 0 mm 7 mps 709 mmHg 52%
    14:00 +22°C° 0 mm 7 mps 709 mmHg 54%
    15:00 +22°C° 0 mm 6 mps 709 mmHg 56%
    16:00 +22°C° 0 mm 6 mps 708 mmHg 58%
    17:00 +20°C° 0 mm 5 mps 708 mmHg 64%
    18:00 +19°C° 0 mm 4 mps 708 mmHg 70%
    19:00 +17°C° 0 mm 4 mps 708 mmHg 76%
    20:00 +17°C° 0 mm 4 mps 708 mmHg 77%
    21:00 +17°C° 0 mm 4 mps 707 mmHg 79%
    22:00 +16°C° 0 mm 3 mps 707 mmHg 81%
    23:00 +16°C° 0 mm 3 mps 707 mmHg 83%

    Tomorrow, 27 April, Saturday

    Time Temperature Precipitation Wind Pressure Humidity
    00:00 +14°C° 0 mm 3 mps 707 mmHg 85%
    01:00 +14°C° 0 mm 3 mps 707 mmHg 87%
    02:00 +14°C° 0.5 mm 3 mps 707 mmHg 88%
    03:00 +13°C° 0.5 mm 3 mps 707 mmHg 90%
    04:00 +13°C° 0.5 mm 4 mps 706 mmHg 91%
    05:00 +13°C° 0.1 mm 3 mps 706 mmHg 90%
    06:00 +14°C° 0.1 mm 3 mps 706 mmHg 88%
    07:00 +14°C° 0.1 mm 3 mps 707 mmHg 87%
    08:00 +16°C° 0.1 mm 3 mps 707 mmHg 85%
    09:00 +16°C° 0.1 mm 3 mps 707 mmHg 83%
    10:00 +16°C° 0.1 mm 3 mps 707 mmHg 82%
    11:00 +17°C° 0.7 mm 3 mps 707 mmHg 79%
    12:00 +18°C° 0.7 mm 4 mps 707 mmHg 77%
    13:00 +18°C° 0.7 mm 4 mps 707 mmHg 75%
    14:00 +18°C° 1 mm 4 mps 707 mmHg 78%
    15:00 +17°C° 1 mm 3 mps 707 mmHg 82%
    16:00 +16°C° 1 mm 3 mps 706 mmHg 85%
    17:00 +13°C° 0.8 mm 3 mps 706 mmHg 88%
    18:00 +12°C° 0.8 mm 3 mps 706 mmHg 92%
    19:00 +10°C° 0.8 mm 2 mps 706 mmHg 95%
    20:00 +10°C° 0.3 mm 2 mps 706 mmHg 95%
    21:00 +10°C° 0.3 mm 2 mps 707 mmHg 95%
    22:00 +9°C° 0.3 mm 2 mps 707 mmHg 96%
    23:00 +9°C° 0.9 mm 3 mps 707 mmHg 95%

    Day after tomorrow, 28 April, Sunday

    Time Temperature Precipitation Wind Pressure Humidity
    00:00 +9°C° 0.9 mm 3 mps 707 mmHg 95%
    01:00 +8°C° 0.9 mm 3 mps 707 mmHg 95%
    02:00 +8°C° 0.9 mm 3 mps 706 mmHg 95%
    03:00 +8°C° 0.9 mm 3 mps 706 mmHg 95%
    04:00 +7°C° 0.9 mm 4 mps 706 mmHg 95%
    05:00 +6°C° 1.8 mm 4 mps 706 mmHg 95%
    06:00 +6°C° 1.8 mm 4 mps 706 mmHg 95%
    07:00 +6°C° 1.8 mm 4 mps 707 mmHg 95%
    08:00 +5°C° 2 mm 4 mps 707 mmHg 95%
    09:00 +5°C° 2 mm 5 mps 707 mmHg 95%
    10:00 +5°C° 2 mm 5 mps 707 mmHg 95%
    11:00 +5°C° 2.3 mm 5 mps 707 mmHg 95%
    12:00 +5°C° 2.3 mm 5 mps 707 mmHg 95%
    13:00 +5°C° 2.3 mm 5 mps 707 mmHg 96%
    14:00 +5°C° 3.5 mm 5 mps 707 mmHg 96%
    15:00 +5°C° 3.5 mm 5 mps 707 mmHg 96%
    16:00 +5°C° 3.5 mm 5 mps 707 mmHg 96%
    17:00 +5°C° 2.3 mm 5 mps 707 mmHg 96%
    18:00 +5°C° 2.3 mm 5 mps 707 mmHg 96%
    19:00 +5°C° 2.3 mm 5 mps 707 mmHg 96%
    20:00 +6°C° 2.2 mm 5 mps 707 mmHg 96%
    21:00 +6°C° 2.2 mm 4 mps 707 mmHg 96%
    22:00 +6°C° 2.2 mm 4 mps 707 mmHg 97%
    23:00 +6°C° 1 mm 4 mps 707 mmHg 97%

    29 April, Monday

    Time Temperature Precipitation Wind Pressure Humidity
    00:00 +6°C° 1 mm 4 mps 707 mmHg 97%
    01:00 +6°C° 1 mm 4 mps 707 mmHg 97%
    02:00 +6°C° 0.3 mm 4 mps 707 mmHg 97%
    03:00 +6°C° 0.3 mm 4 mps 707 mmHg 97%
    04:00 +6°C° 0.3 mm 4 mps 707 mmHg 97%
    05:00 +6°C° 0.2 mm 4 mps 706 mmHg 97%
    06:00 +6°C° 0.2 mm 4 mps 706 mmHg 96%
    07:00 +6°C° 0.2 mm 4 mps 706 mmHg 96%
    08:00 +6°C° 0.5 mm 4 mps 706 mmHg 96%
    09:00 +6°C° 0.5 mm 4 mps 706 mmHg 96%
    10:00 +6°C° 0.5 mm 4 mps 706 mmHg 96%
    11:00 +7°C° 0.8 mm 3 mps 706 mmHg 96%
    12:00 +7°C° 0.8 mm 3 mps 706 mmHg 96%
    13:00 +5°C° 0.8 mm 3 mps 706 mmHg 96%
    14:00 +5°C° 1.9 mm 3 mps 706 mmHg 96%
    15:00 +5°C° 1.9 mm 3 mps 705 mmHg 97%
    16:00 +5°C° 1.9 mm 3 mps 705 mmHg 97%
    17:00 +5°C° 1.7 mm 3 mps 705 mmHg 97%
    18:00 +5°C° 1.7 mm 3 mps 705 mmHg 97%
    19:00 +5°C° 1.7 mm 3 mps 705 mmHg 97%
    20:00 +6°C° 1.8 mm 2 mps 705 mmHg 98%
    21:00 +6°C° 1.8 mm 2 mps 705 mmHg 98%
    22:00 +7°C° 1.8 mm 1 mps 705 mmHg 98%
    23:00 +7°C° 0.5 mm 2 mps 705 mmHg 98%

    30 April, Tuesday

    Time Temperature Precipitation Wind Pressure Humidity
    00:00 +7°C° 0.5 mm 2 mps 705 mmHg 98%
    01:00 +7°C° 0.5 mm 2 mps 705 mmHg 98%
    02:00 +7°C° 0.1 mm 2 mps 705 mmHg 98%
    03:00 +7°C° 0.1 mm 2 mps 705 mmHg 98%
    04:00 +7°C° 0.1 mm 2 mps 705 mmHg 98%
    05:00 +7°C° 0.1 mm 3 mps 705 mmHg 97%
    06:00 +7°C° 0.1 mm 3 mps 705 mmHg 97%
    07:00 +7°C° 0.1 mm 3 mps 705 mmHg 96%
    08:00 +7°C° 0.1 mm 3 mps 705 mmHg 95%
    09:00 +7°C° 0.1 mm 3 mps 705 mmHg 94%
    10:00 +7°C° 0.1 mm 3 mps 706 mmHg 93%
    11:00 +7°C° 0 mm 3 mps 706 mmHg 92%
    12:00 +7°C° 0 mm 3 mps 706 mmHg 91%
    13:00 +8°C° 0 mm 3 mps 706 mmHg 91%
    14:00 +8°C° 0.1 mm 3 mps 705 mmHg 88%
    15:00 +8°C° 0.1 mm 3 mps 705 mmHg 85%
    16:00 +9°C° 0.1 mm 3 mps 705 mmHg 82%
    17:00 +7°C° 0 mm 3 mps 705 mmHg 86%
    18:00 +6°C° 0 mm 2 mps 705 mmHg 90%
    19:00 +5°C° 0 mm 2 mps 705 mmHg 94%
    20:00 +5°C° 0 mm 2 mps 705 mmHg 94%
    21:00 +4°C° 0 mm 2 mps 705 mmHg 94%
    22:00 +4°C° 0 mm 1 mps 705 mmHg 94%
    23:00 +4°C° 0 mm 1 mps 705 mmHg 94%

    1 May, Wednesday

    Time Temperature Precipitation Wind Pressure Humidity
    00:00 +3°C° 0 mm 2 mps 705 mmHg 95%
    01:00 +2°C° 0 mm 2 mps 705 mmHg 95%
    02:00 +2°C° 0 mm 2 mps 705 mmHg 95%
    03:00 +3°C° 0 mm 1 mps 705 mmHg 95%
    04:00 +2°C° 0 mm 1 mps 705 mmHg 96%
    05:00 +3°C° 0 mm 2 mps 705 mmHg 90%
    06:00 +4°C° 0 mm 2 mps 705 mmHg 85%
    07:00 +6°C° 0 mm 2 mps 705 mmHg 79%
    08:00 +7°C° 0 mm 3 mps 706 mmHg 71%
    09:00 +9°C° 0 mm 3 mps 706 mmHg 62%
    10:00 +10°C° 0 mm 4 mps 706 mmHg 53%
    11:00 +11°C° 0.1 mm 4 mps 706 mmHg 53%
    12:00 +11°C° 0.1 mm 4 mps 706 mmHg 53%
    13:00 +12°C° 0.1 mm 4 mps 706 mmHg 52%
    14:00 +11°C° 0.2 mm 4 mps 705 mmHg 56%
    15:00 +11°C° 0.2 mm 4 mps 705 mmHg 59%
    16:00 +10°C° 0.2 mm 4 mps 705 mmHg 62%
    17:00 +9°C° 0.1 mm 3 mps 705 mmHg 70%
    18:00 +7°C° 0.1 mm 2 mps 705 mmHg 77%
    19:00 +6°C° 0.1 mm 2 mps 705 mmHg 84%
    20:00 +6°C° 0 mm 1 mps 705 mmHg 86%
    21:00 +5°C° 0 mm 1 mps 705 mmHg 88%
    22:00 +4°C° 0 mm 1 mps 705 mmHg 89%
    23:00 +3°C° 0 mm 1 mps 705 mmHg 89%
    Show more